FENGYUN 1C DEB

Satellite information

Favourite Embed

Satellite Type and Status

DEBRISIN ORBIT

Key statistics

Satellite FENGYUN 1C DEB at a glance.

Uptime

9655

Days in orbit

Revolutions

≈ 14.6

Per day

Orbit

SSO

Sun Synchronous Orbit

Inclination

98.9

Latest

Satellite identification and parameters

Extended collection of information and parameters for FENGYUN 1C DEB.

Object identification

Identified? True

Debris? True

Object name: FENGYUN 1C DEB

International designator: 1999-025ATZ

Object number (NORAD): 30763

Object ID (CCSDS): 30763

Country: PEOPLES REPUBLIC OF CHINA (PRC)

Current information (Y/N): Y

RCS size: SMALL

Orbital parameters

Period: 98.771 minutes

Inclination: 98.8943 deg

SMA: 7078.036 km

Apoapsis: 716.973 km

Periapsis: 682.829 km

RAAN: 353.9696 deg

Eccentricy: 0.002412

Argument of periapsis: 102.8234 deg

Mean anomaly: 319.8866 deg

Mean motion: 14.57919715 rev/day

Mean motion (dot): 0.00021669 rev/day2

B* drag term: 0.0047029279 1/REarth

Two-line elements (TLE)

Creation date: Oct. 14, 2025, 2:50 a.m.

Reference frame: TEME

Reference center: EARTH

Epoch: Oct. 13, 2025, 8:44 p.m. UTC

TLE line 0: 0 FENGYUN 1C DEB

TLE line 1: 1 30763U 99025ATZ 25286.86391587 .00021669 00000-0 47029-2 0 9992

TLE line 2: 2 30763 98.8943 353.9696 0024120 102.8234 319.8866 14.57919715962717

Live tracking on map

Real-time ground track for satellite FENGYUN 1C DEB.

In-orbit conjunctions

A list of the most updated potential collisions computed for object FENGYUN 1C DEB.

Target Orbit TCA Probability of collision Miss distance Type
FENGYUN 1C DEB SSO 2025-08-22 18:35:34 0.0001145753 144.0 (m) DEBRIS
COSMOS 2251 DEB LEO 2024-11-14 22:21:28 0.000101894 566.0 (m) DEBRIS
DMSP 5D-2 F11 DEB SSO 2024-11-10 06:31:28 0.0001366822 346.0 (m) DEBRIS
VANGUARD 1 MEO 2024-09-09 23:01:28 0.0003088808 934.0 (m) PAYLOAD

Associated space launch

Chinese polar orbiting meteorological satellite

FENGYUN 1C DEB was lifted into orbit during the mission ‘Long March 4B | Feng Yun 1C’, on board a Long March 4B space rocket.

The launch took place on May 10, 1999, 1:33 a.m. from Launch Complex 7.

For more information about the launch, click the button.

Launch to space Long March 4B | Feng Yun 1C
Long March 4B | Feng Yun 1C

Agency: N/A

Status: Launch Successful

Launch date: May 10, 1999, 1:33 a.m. UTC

Rocket: Long March 4B

Launch pad: Launch Complex 7

Location: Taiyuan Satellite Launch Center, People's Republic of China

...

Latest news about this satellite

There are no fresh news available about this satellite. Check back as we update our databases every day.


Newsletter sign-up

Weekly statistics, charts and insights to help you stay on top of the space industry.